This is the latest recevied weather packets stored in our database for station/object EA1ZE. If no packets are shown the sender has not sent any weather packets the latest 10 day(s).
| Time | Temp. | Humidity | Pressure | Rain* | Wind** | Luminosity | Snow |
|---|---|---|---|---|---|---|---|
| 1787619603 | 17.78° C | 76% | 1011.7 hPa | 0 mm | - | - | - |
| 1787618702 | 17.78° C | 75% | 1011.7 hPa | 0 mm | - | - | - |
| 1787617863 | 17.78° C | 75% | 1011.8 hPa | 0 mm | - | - | - |
| 1787616972 | 18.33° C | 74% | 1011.5 hPa | 0 mm | - | - | - |
| 1787616053 | 18.33° C | 74% | 1011.3 hPa | 0 mm | - | - | - |
| 1787615152 | 18.33° C | 73% | 1011.2 hPa | 0 mm | - | - | - |
| 1787614250 | 18.33° C | 72% | 1011 hPa | 0 mm | - | - | - |
| 1787613349 | 18.33° C | 72% | 1011 hPa | 0 mm | - | - | - |
| 1787612447 | 18.33° C | 72% | 1011 hPa | 0 mm | - | - | - |
| 1787611547 | 18.33° C | 72% | 1010.9 hPa | 0 mm | - | - | - |
| 1787610644 | 18.33° C | 72% | 1010.8 hPa | 0 mm | - | - | - |
| 1787609742 | - | - | 1010.8 hPa | 0 mm | - | - | - |
| 1787608844 | - | - | 1010.7 hPa | 0 mm | - | - | - |
| 1787607939 | 18.33° C | 72% | 1010.7 hPa | 0 mm | - | - | - |
| 1787607033 | 18.33° C | 72% | 1010.6 hPa | 0 mm | - | - | - |
| 1787606132 | 18.33° C | 74% | 1010.7 hPa | 0 mm | - | - | - |
| 1787605238 | 18.33° C | 78% | 1010.5 hPa | 0 mm | - | - | - |
| 1787604331 | 18.33° C | 81% | 1010.3 hPa | 0 mm | - | - | - |
| 1787603427 | 18.33° C | 80% | 1010.1 hPa | 0 mm | - | - | - |
| 1787602525 | 18.33° C | 82% | 1009.7 hPa | 0 mm | - | - | - |
| 1787601626 | 18.33° C | 84% | 1009.6 hPa | 1.78 mm | - | - | - |
| 1787600723 | 17.78° C | 87% | 1009.4 hPa | 2.79 mm | - | - | - |
| 1787599820 | 17.78° C | 86% | 1009.1 hPa | 2.79 mm | - | - | - |
| 1787598916 | 18.33° C | 84% | 1008.8 hPa | 2.79 mm | - | - | - |
| 1787598014 | 20.56° C | 75% | 1008.9 hPa | 1.02 mm | - | - | - |
* Rain latest hour (hover to see other rain measurements)
** Current wind speed in m/s (hover to see current wind gust speed)